Tracking 18957 objects as of 24-Jan-2018
HD Live streaming from Space Station
objects crossing your sky now

GLOBALSTAR M026

Track GLOBALSTAR M026 now!
10-day predictions
GLOBALSTAR M026 is classified as:


NORAD ID: 25873
Int'l Code: 1999-041B
Perigee: 2,133.2 km
Apogee: 2,135.6 km
Inclination: 52.0 °
Period: 130.1 minutes
Semi major axis: 8505 km
RCS: 2.6024 m2 (large)
Launch date: July 25, 1999
Source: Globalstar (GLOB)
Launch site: AIR FORCE EASTERN TEST RANGE (AFETR)
aabbcc
Your satellite tracking list
Your tracking list is empty




NASA's NSSDC Master Catalog

Two Line Element Set (TLE):
1 25873U 99041B   18022.71688812 -.00000008 +00000-0 +20853-2 0  9991
2 25873 052.0015 107.7654 0001418 136.6111 006.9854 11.06775993849431
Source of the keplerian elements: AFSPC